Time,TemperatureF,DewpointF,PressureIn,WindDirection,WindDirectionDegrees,WindSpeedMPH,WindSpeedGustMPH,Humidity,HourlyPrecipIn,Conditions,Clouds,dailyrainin,SolarRadiationWatts/m^2,SoftwareType,DateUTC
2013-01-30 00:14:00,37.7,36.0,30.42,West,281,0.0,1.0,94,0.00,,,0.00,0,weatherlink.com 1.10,2013-01-30 08:14:00,
2013-01-30 00:29:00,38.2,37.0,30.41,West,281,0.0,1.0,94,0.00,,,0.00,0,weatherlink.com 1.10,2013-01-30 08:29:00,
2013-01-30 00:44:00,38.5,37.0,30.41,West,281,0.0,0.0,94,0.00,,,0.00,0,weatherlink.com 1.10,2013-01-30 08:44:00,
2013-01-30 00:59:00,38.7,37.0,30.41,WNW,297,0.0,2.0,94,0.00,,,0.00,0,weatherlink.com 1.10,2013-01-30 08:59:00,
2013-01-30 01:14:00,38.3,37.0,30.41,WNW,297,0.0,1.0,94,0.00,,,0.00,0,weatherlink.com 1.10,2013-01-30 09:14:00,
2013-01-30 01:29:00,37.1,36.0,30.41,WNW,297,0.0,1.0,94,0.00,,,0.00,0,weatherlink.com 1.10,2013-01-30 09:29:00,
2013-01-30 01:44:00,36.9,36.0,30.42,WNW,298,2.0,2.0,95,0.00,,,0.00,0,weatherlink.com 1.10,2013-01-30 09:44:00,
2013-01-30 01:59:00,37.4,36.0,30.42,NW,304,0.0,2.0,95,0.00,,,0.00,0,weatherlink.com 1.10,2013-01-30 09:59:00,
2013-01-30 02:14:00,37.3,36.0,30.43,NW,304,0.0,1.0,95,0.00,,,0.00,0,weatherlink.com 1.10,2013-01-30 10:14:00,
2013-01-30 02:29:00,37.1,36.0,30.44,NW,304,0.0,2.0,95,0.00,,,0.00,0,weatherlink.com 1.10,2013-01-30 10:29:00,
2013-01-30 02:44:00,36.9,36.0,30.44,NW,304,0.0,2.0,95,0.00,,,0.00,0,weatherlink.com 1.10,2013-01-30 10:44:00,
2013-01-30 03:00:00,37.8,37.0,30.44,NW,319,0.0,3.0,95,0.00,,,0.00,0,weatherlink.com 1.10,2013-01-30 11:00:00,
2013-01-30 03:14:00,37.7,36.0,30.45,NW,319,0.0,1.0,95,0.00,,,0.00,0,weatherlink.com 1.10,2013-01-30 11:14:00,
2013-01-30 03:29:00,38.5,37.0,30.45,NW,325,0.0,2.0,95,0.00,,,0.00,0,weatherlink.com 1.10,2013-01-30 11:29:00,
2013-01-30 03:44:00,39.2,38.0,30.45,NW,326,0.0,2.0,96,0.00,,,0.00,0,weatherlink.com 1.10,2013-01-30 11:44:00,
2013-01-30 03:59:00,40.1,39.0,30.45,NW,322,1.0,5.0,96,0.00,,,0.00,0,weatherlink.com 1.10,2013-01-30 11:59:00,
2013-01-30 04:15:00,39.7,38.0,30.46,NNW,338,0.0,3.0,95,0.00,,,0.00,0,weatherlink.com 1.10,2013-01-30 12:15:00,
2013-01-30 04:29:00,39.0,38.0,30.46,NE,42,0.0,2.0,95,0.00,,,0.00,0,weatherlink.com 1.10,2013-01-30 12:29:00,
2013-01-30 04:44:00,38.1,37.0,30.46,NE,42,0.0,0.0,94,0.00,,,0.00,0,weatherlink.com 1.10,2013-01-30 12:44:00,
2013-01-30 04:59:00,36.7,35.0,30.46,NE,36,1.0,1.0,95,0.00,,,0.00,0,weatherlink.com 1.10,2013-01-30 12:59:00,
2013-01-30 05:14:00,36.4,35.0,30.46,NNE,24,0.0,2.0,95,0.00,,,0.00,0,weatherlink.com 1.10,2013-01-30 13:14:00,
2013-01-30 05:30:00,36.9,36.0,30.46,NNE,24,0.0,2.0,95,0.00,,,0.00,0,weatherlink.com 1.10,2013-01-30 13:30:00,
2013-01-30 05:45:00,37.0,36.0,30.47,NNE,24,0.0,0.0,95,0.01,,,0.01,0,weatherlink.com 1.10,2013-01-30 13:45:00,
2013-01-30 06:00:00,37.0,36.0,30.47,NNE,24,0.0,0.0,95,0.01,,,0.01,0,weatherlink.com 1.10,2013-01-30 14:00:00,
2013-01-30 06:15:00,36.5,35.0,30.48,NNE,24,1.0,1.0,95,0.01,,,0.01,0,weatherlink.com 1.10,2013-01-30 14:15:00,
2013-01-30 06:30:00,37.3,36.0,30.48,NNE,24,0.0,1.0,96,0.01,,,0.01,0,weatherlink.com 1.10,2013-01-30 14:30:00,
2013-01-30 06:45:00,36.7,35.0,30.49,NNE,24,0.0,1.0,95,0.00,,,0.01,0,weatherlink.com 1.10,2013-01-30 14:45:00,
2013-01-30 07:00:00,37.7,37.0,30.50,NNE,24,0.0,0.0,96,0.00,,,0.01,14,weatherlink.com 1.10,2013-01-30 15:00:00,
2013-01-30 07:15:00,37.4,36.0,30.51,NNE,24,0.0,1.0,96,0.00,,,0.01,26,weatherlink.com 1.10,2013-01-30 15:15:00,
2013-01-30 07:30:00,38.6,38.0,30.52,NNE,24,0.0,0.0,96,0.00,,,0.01,35,weatherlink.com 1.10,2013-01-30 15:30:00,
2013-01-30 07:45:00,39.2,38.0,30.52,NNE,24,0.0,1.0,96,0.00,,,0.01,42,weatherlink.com 1.10,2013-01-30 15:45:00,
2013-01-30 08:00:00,42.5,42.0,30.51,NNE,24,1.0,1.0,97,0.00,,,0.01,53,weatherlink.com 1.10,2013-01-30 16:00:00,
2013-01-30 08:15:00,46.7,46.0,30.51,NNE,23,0.0,3.0,96,0.00,,,0.01,218,weatherlink.com 1.10,2013-01-30 16:15:00,
2013-01-30 08:30:00,49.6,46.0,30.50,WSW,255,0.0,4.0,87,0.00,,,0.01,267,weatherlink.com 1.10,2013-01-30 16:30:00,
2013-01-30 08:45:00,52.2,46.0,30.51,West,278,1.0,3.0,79,0.00,,,0.01,313,weatherlink.com 1.10,2013-01-30 16:45:00,
2013-01-30 09:00:00,54.0,46.0,30.50,West,278,0.0,3.0,74,0.00,,,0.01,357,weatherlink.com 1.10,2013-01-30 17:00:00,
2013-01-30 09:15:00,56.5,47.0,30.50,SSW,192,0.0,2.0,70,0.00,,,0.01,410,weatherlink.com 1.10,2013-01-30 17:15:00,
2013-01-30 09:30:00,57.4,46.0,30.50,WNW,297,0.0,1.0,67,0.00,,,0.01,455,weatherlink.com 1.10,2013-01-30 17:30:00,
2013-01-30 09:45:00,58.5,46.0,30.50,WNW,297,0.0,1.0,64,0.00,,,0.01,497,weatherlink.com 1.10,2013-01-30 17:45:00,
2013-01-30 10:01:00,59.4,48.0,30.50,SE,144,3.0,4.0,65,0.00,,,0.01,533,weatherlink.com 1.10,2013-01-30 18:01:00,
2013-01-30 10:16:00,60.4,48.0,30.50,SE,131,0.0,3.0,63,0.00,,,0.01,566,weatherlink.com 1.10,2013-01-30 18:16:00,
2013-01-30 10:31:00,60.4,47.0,30.50,ENE,76,2.0,3.0,61,0.00,,,0.01,596,weatherlink.com 1.10,2013-01-30 18:31:00,
2013-01-30 10:46:00,60.1,47.0,30.50,North,349,0.0,7.0,63,0.00,,,0.01,617,weatherlink.com 1.10,2013-01-30 18:46:00,
2013-01-30 11:01:00,60.1,47.0,30.49,NNW,337,1.0,7.0,63,0.00,,,0.01,635,weatherlink.com 1.10,2013-01-30 19:01:00,
2013-01-30 11:16:00,61.3,47.0,30.48,NW,321,1.0,7.0,59,0.00,,,0.01,654,weatherlink.com 1.10,2013-01-30 19:16:00,
2013-01-30 11:31:00,62.1,46.0,30.47,NW,323,1.0,6.0,57,0.00,,,0.01,666,weatherlink.com 1.10,2013-01-30 19:31:00,
2013-01-30 11:46:00,62.5,46.0,30.47,WNW,292,0.0,5.0,55,0.00,,,0.01,675,weatherlink.com 1.10,2013-01-30 19:46:00,
2013-01-30 12:01:00,-999.0,-99.9,30.46,North,-999,-999.0,-999.0,-999,0.00,,,0.01,,weatherlink.com 1.10,2013-01-30 20:01:00,
2013-01-30 12:16:00,63.1,45.0,30.45,West,275,2.0,7.0,53,0.00,,,0.01,680,weatherlink.com 1.10,2013-01-30 20:16:00,
2013-01-30 12:31:00,63.8,44.0,30.44,West,273,3.0,8.0,49,0.00,,,0.01,677,weatherlink.com 1.10,2013-01-30 20:31:00,
2013-01-30 12:46:00,64.3,43.0,30.43,WNW,296,2.0,9.0,46,0.00,,,0.01,666,weatherlink.com 1.10,2013-01-30 20:46:00,
2013-01-30 13:01:00,64.8,42.0,30.42,WSW,251,2.0,7.0,43,0.00,,,0.01,657,weatherlink.com 1.10,2013-01-30 21:01:00,
2013-01-30 13:16:00,65.4,43.0,30.41,WSW,252,2.0,8.0,44,0.00,,,0.01,640,weatherlink.com 1.10,2013-01-30 21:16:00,
2013-01-30 13:31:00,65.6,41.0,30.41,West,267,4.0,7.0,41,0.00,,,0.01,617,weatherlink.com 1.10,2013-01-30 21:31:00,
2013-01-30 13:46:00,66.2,41.0,30.40,West,261,2.0,8.0,40,0.00,,,0.01,596,weatherlink.com 1.10,2013-01-30 21:46:00,
2013-01-30 14:01:00,66.5,41.0,30.40,WNW,292,5.0,8.0,40,0.00,,,0.01,564,weatherlink.com 1.10,2013-01-30 22:01:00,
2013-01-30 14:16:00,66.9,44.0,30.39,WSW,244,6.0,7.0,43,0.00,,,0.01,531,weatherlink.com 1.10,2013-01-30 22:16:00,
2013-01-30 14:31:00,66.8,43.0,30.39,West,281,1.0,9.0,43,0.00,,,0.01,497,weatherlink.com 1.10,2013-01-30 22:31:00,
2013-01-30 14:47:00,67.2,43.0,30.38,NW,321,5.0,8.0,41,0.00,,,0.01,461,weatherlink.com 1.10,2013-01-30 22:47:00,
2013-01-30 15:01:00,67.7,43.0,30.38,WNW,289,3.0,6.0,41,0.00,,,0.01,418,weatherlink.com 1.10,2013-01-30 23:01:00,
2013-01-30 15:16:00,67.5,42.0,30.37,West,267,4.0,6.0,39,0.00,,,0.01,376,weatherlink.com 1.10,2013-01-30 23:16:00,
2013-01-30 15:32:00,67.2,40.0,30.37,WNW,302,3.0,8.0,37,0.00,,,0.01,330,weatherlink.com 1.10,2013-01-30 23:32:00,
2013-01-30 15:47:00,67.0,40.0,30.37,WNW,286,6.0,9.0,37,0.00,,,0.01,281,weatherlink.com 1.10,2013-01-30 23:47:00,
2013-01-30 16:02:00,66.9,40.0,30.37,NW,323,3.0,8.0,37,0.00,,,0.01,221,weatherlink.com 1.10,2013-01-31 00:02:00,
2013-01-30 16:17:00,66.4,40.0,30.36,NW,313,3.0,6.0,38,0.00,,,0.01,158,weatherlink.com 1.10,2013-01-31 00:17:00,
2013-01-30 16:32:00,65.6,42.0,30.36,NW,311,4.0,6.0,42,0.00,,,0.01,98,weatherlink.com 1.10,2013-01-31 00:32:00,
2013-01-30 16:47:00,64.3,42.0,30.36,NW,317,0.0,4.0,44,0.00,,,0.01,37,weatherlink.com 1.10,2013-01-31 00:47:00,
2013-01-30 17:02:00,62.6,44.0,30.36,NW,317,0.0,2.0,50,0.00,,,0.01,18,weatherlink.com 1.10,2013-01-31 01:02:00,
2013-01-30 17:17:00,59.4,45.0,30.37,NW,317,0.0,1.0,59,0.00,,,0.01,7,weatherlink.com 1.10,2013-01-31 01:17:00,
2013-01-30 17:32:00,55.5,43.0,30.37,NW,317,0.0,1.0,63,0.00,,,0.01,0,weatherlink.com 1.10,2013-01-31 01:32:00,
2013-01-30 17:47:00,53.3,43.0,30.37,NW,317,0.0,1.0,67,0.00,,,0.01,0,weatherlink.com 1.10,2013-01-31 01:47:00,
2013-01-30 18:02:00,51.8,42.0,30.37,NW,317,0.0,2.0,69,0.00,,,0.01,0,weatherlink.com 1.10,2013-01-31 02:02:00,
2013-01-30 18:17:00,50.6,41.0,30.38,NW,317,1.0,1.0,71,0.00,,,0.01,0,weatherlink.com 1.10,2013-01-31 02:17:00,
2013-01-30 18:32:00,49.7,42.0,30.38,NW,317,0.0,2.0,74,0.00,,,0.01,0,weatherlink.com 1.10,2013-01-31 02:32:00,
2013-01-30 18:47:00,50.3,42.0,30.38,NW,317,0.0,1.0,73,0.00,,,0.01,0,weatherlink.com 1.10,2013-01-31 02:47:00,
2013-01-30 19:02:00,49.2,41.0,30.38,NW,317,0.0,1.0,74,0.00,,,0.01,0,weatherlink.com 1.10,2013-01-31 03:02:00,
2013-01-30 19:17:00,50.0,42.0,30.38,North,360,0.0,2.0,75,0.00,,,0.01,0,weatherlink.com 1.10,2013-01-31 03:17:00,
2013-01-30 19:32:00,49.6,42.0,30.39,North,355,0.0,2.0,75,0.00,,,0.01,0,weatherlink.com 1.10,2013-01-31 03:32:00,
2013-01-30 19:47:00,49.0,42.0,30.39,North,355,0.0,1.0,77,0.00,,,0.01,0,weatherlink.com 1.10,2013-01-31 03:47:00,
2013-01-30 20:02:00,47.6,41.0,30.39,North,355,0.0,0.0,79,0.00,,,0.01,0,weatherlink.com 1.10,2013-01-31 04:02:00,
2013-01-30 20:17:00,46.3,41.0,30.40,North,355,0.0,1.0,82,0.00,,,0.01,0,weatherlink.com 1.10,2013-01-31 04:17:00,
2013-01-30 20:32:00,45.2,40.0,30.41,North,355,0.0,0.0,83,0.00,,,0.01,0,weatherlink.com 1.10,2013-01-31 04:32:00,
2013-01-30 20:47:00,44.3,40.0,30.41,North,355,0.0,1.0,86,0.00,,,0.01,0,weatherlink.com 1.10,2013-01-31 04:47:00,
2013-01-30 21:17:00,42.9,40.0,30.42,North,355,0.0,1.0,88,0.00,,,0.01,0,weatherlink.com 1.10,2013-01-31 05:17:00,
2013-01-30 21:32:00,42.6,40.0,30.43,North,355,1.0,1.0,89,0.00,,,0.01,0,weatherlink.com 1.10,2013-01-31 05:32:00,
2013-01-30 21:47:00,42.5,40.0,30.43,North,355,0.0,1.0,89,0.00,,,0.01,0,weatherlink.com 1.10,2013-01-31 05:47:00,
2013-01-30 22:02:00,42.7,40.0,30.43,NW,318,0.0,3.0,90,0.00,,,0.01,0,weatherlink.com 1.10,2013-01-31 06:02:00,
2013-01-30 22:17:00,42.7,40.0,30.43,NW,319,0.0,2.0,90,0.00,,,0.01,0,weatherlink.com 1.10,2013-01-31 06:17:00,
2013-01-30 22:32:00,42.5,40.0,30.43,NW,319,0.0,1.0,90,0.00,,,0.01,0,weatherlink.com 1.10,2013-01-31 06:32:00,
2013-01-30 22:47:00,43.9,42.0,30.43,North,355,0.0,3.0,91,0.00,,,0.01,0,weatherlink.com 1.10,2013-01-31 06:47:00,
2013-01-30 23:02:00,45.2,42.0,30.42,NNW,340,0.0,1.0,89,0.00,,,0.01,0,weatherlink.com 1.10,2013-01-31 07:02:00,
2013-01-30 23:17:00,44.9,41.0,30.42,NNW,340,0.0,1.0,87,0.00,,,0.01,0,weatherlink.com 1.10,2013-01-31 07:17:00,
2013-01-30 23:32:00,43.3,39.0,30.42,NNW,340,0.0,1.0,86,0.00,,,0.01,0,weatherlink.com 1.10,2013-01-31 07:32:00,
2013-01-30 23:47:00,42.2,39.0,30.42,NNW,340,0.0,1.0,88,0.00,,,0.01,0,weatherlink.com 1.10,2013-01-31 07:47:00,